Location: *
(43.0833°N, 13.0500°E)
Time: 08:32:32
(UTC+00:00)

Cosmos 1932 - Pass Details

Date: 15 November 2019
Orbit: 923 x 1006 km, 65.0° (Epoch: 07 December)

Event Time Altitude Azimuth Distance (km) Brightness Sun altitude
Rises 18:12:12 0° 325° (NW) 3,729 8.0 -27.0°
Reaches altitude 10° 18:14:47 10° 325° (NW) 2,782 7.3 -27.4°
Maximum altitude 18:21:22 86° 239° (WSW) 1,014 4.5 -28.6°
Enters shadow 18:22:24 66° 157° (SSE) 1,093 4.5 -28.8°
